Regional Weather Roundup
Issued by NWS

Home | Current Version | Previous Version | Text Only | Print | Product List | Glossary Off
Versions: 1 2 3 4 5 6 7 8 9 10 11 12 13 14 15 16 17 18 19 20 21 22 23 24 25 26 27

000
ASUS45 KTFX 230810
RWRMT
MONTANA REGIONAL WEATHER ROUNDUP
NATIONAL WEATHER SERVICE GREAT FALLS MT
100 AM MST THU FEB 23 2017

NOTE: "FAIR" INDICATES FEW OR NO CLOUDS BELOW 12000 FEET WITH NO
SIGNIFICANT WEATHER AND/OR OBSTRUCTIONS TO VISIBILITY.

MTZ001>007-043-230900-
WEST OF THE DIVIDE

CITY           SKY/WX    TMP DP  RH WIND       PRES   REMARKS
KALISPELL      CLEAR     20  17  88 NW3       29.94F
MISSOULA       CLOUDY    30  26  85 SE3       29.93S
BUTTE          CLOUDY    24  21  88 CALM      29.81S
MULLAN PASS    CLOUDY    20  18  92 N5        29.83S FOG
ANACONDA         N/A     27  19  74 N12       29.83S WCI  16
DEER LODGE       N/A     28  21  74 N9        29.88R WCI  20
EUREKA           N/A     19  18  93 CALM      30.00R
HAMILTON         N/A     30  25  80 NW3       29.89S
LIBBY            N/A     21  19  93 CALM      29.98S
PLAINS           N/A     31  25  78 W3        29.97S
RONAN            N/A     25  21  84 CALM      29.96S
$$

MTZ008-052>055-230900-
SOUTHWEST MONTANA

CITY           SKY/WX    TMP DP  RH WIND       PRES   REMARKS
BOZEMAN        CLOUDY    28  25  88 NW3       29.82F
DILLON         CLOUDY    27  23  85 NE12      29.75F WCI  17
W YELLOWSTONE  CLOUDY     7   5  92 SW3       29.73F
ENNIS          CLOUDY    25  23  93 VRB5      29.81F
THREE FORKS      N/A     28  23  81 CALM      29.85S
TWIN BRIDGES     N/A     28  20  72 N12       29.79F WCI  18
$$

MTZ009-010-012-014-046-048-049-054-230900-
EAST SLOPES AND CENTRAL MONTANA

CITY           SKY/WX    TMP DP  RH WIND       PRES   REMARKS
CUT BANK       CLOUDY    24  22  91 NE16      29.96S WCI  11
GREAT FALLS    CLOUDY    29  26  89 N7        29.93F WCI  22
MALMSTROM AFB  CLOUDY    30  28  93 N6        29.94F WCI  24
HELENA         CLOUDY    31  24  75 NW8       29.89R WCI  23
AUGUSTA        FLURRIES  26  25  96 NE12      29.91F WCI  16
BOWMANS CRNR   FLURRIES  26  24  94 NE8       29.90S WCI  17
CHOTEAU          N/A     28  27  93 N8        29.96S WCI  20
CONRAD           N/A     27  26  96 N7        29.98S WCI  20
POWER          MOCLDY    26  26  99 N10       29.93F WCI  17
RAYNESFORD     FLURRIES  28  26  94 NW6       29.91F WCI  21
ULM            FLURRIES  29  27  92 MISG      29.93F
$$

MTZ011-013-016-021-045-047-050-051-230900-
NORTH CENTRAL MONTANA

CITY           SKY/WX    TMP DP  RH WIND       PRES   REMARKS
HAVRE          CLOUDY    29  28  96 NE7       30.00R WCI  22
LEWISTOWN      LGT SNOW  27  24  89 E3        29.89S FOG
N BAR RANCH    FLURRIES  25  23  93 CALM      29.91S
CHINOOK          N/A     30  30 100 N3        30.01S
DENTON         FLURRIES  25  24  97 E12       29.89R WCI  14
FORT BENTON      N/A     30  27  86 CALM        N/A
GEYSER         MOCLDY    28  24  86 N9        29.90F WCI  19
GRASS RANGE    FLURRIES  27  26  96 NE3       29.88F
JUDITH GAP     CLOUDY    25  23  92 N13       29.87S WCI  14
ROY            FLURRIES  27  26  96 MISG      29.91F
STANFORD       FLURRIES  27  26  97 N9        29.89S WCI  17
WINIFRED       LGT SNOW  26  26  98 E13       29.90S FOG     WCI  15
$$

MTZ017>020-022>027-061-062-230900-
NORTHEAST MONTANA

CITY           SKY/WX    TMP DP  RH WIND       PRES   REMARKS
GLASGOW        CLEAR     23  21  92 NE3       29.99S
JORDAN           N/A     23  20  88 N8        29.95S WCI  14
SIDNEY         CLOUDY    26  25  96 NW3       29.99F
WOLF POINT     CLOUDY    27  23  85 CALM      30.00F
PLENTYWOOD       N/A     30  27  86 CALM      29.99S
POPLAR           N/A     28  25  86 N3        30.01S
SCOBEY           N/A     30  21  69 CALM      29.96
$$

MTZ028>42-056>058-230900-
SOUTHCENTRAL AND SOUTHEAST MONTANA

CITY           SKY/WX    TMP DP  RH WIND       PRES   REMARKS
BAKER          CLOUDY    26  23  88 E9        29.96R WCI  17
BILLINGS       CLOUDY    30  28  92 NE10      29.88F WCI  21
LIVINGSTON     CLOUDY    29  25  85 E10       29.82F WCI  20
MILES CITY     CLOUDY    29  23  78 E9        29.97R WCI  20
BIG TIMBER     CLOUDY    28  28 100 E12       29.87F FOG     WCI  18
EKALAKA          N/A     26  22  85 NE6       29.90  WCI  19
FORSYTH          N/A     30  27  86 E7        29.95R WCI  23
HARLOWTON      FLURRIES  27  26  96 E3        29.88S
LAUREL           N/A     29  26  88 CALM      29.88S
$$

REGIONAL REPORTS...DAKOTAS

CITY           SKY/WX    TMP DP  RH WIND       PRES   REMARKS
WILLISTON      CLOUDY    28  25  88 CALM      30.00S
MINOT          CLOUDY    33  28  81 W5        29.97F
DICKINSON      CLOUDY    23  21  92 E5        29.95R
BEACH            N/A    N/A N/A N/A MISG        N/A
CROSBY         CLOUDY    32  30  93 W7        30.00F WCI  26
TIOGA          CLOUDY    27  27 100 W7        29.99S WCI  19
WATFORD CITY     N/A     25  25 100 CALM      29.99S FOG
BISMARCK       PTCLDY    25  23  92 CALM      30.00S
GRAND FORKS    MOCLDY    28  21  75 N7        29.98S WCI  21
FARGO          CLEAR     30  26  85 N12       29.95F WCI  20
BUFFALO SD       N/A     29  27  92 E10       29.87R WCI  20
RAPID CITY     CLOUDY    30  27  88 N7        29.89F WCI  23
$$

REGIONAL REPORTS...WYOMING/IDAHO/WASHINGTON

CITY           SKY/WX    TMP DP  RH WIND       PRES   REMARKS
GILLETTE       CLOUDY    29  26  89 NE10      29.83S WCI  20
SHERIDAN       CLOUDY    30  27  88 VRB6      29.85F WCI  24
BUFFALO WY     CLOUDY    29  25  85 N8        29.81F WCI  21
CODY           CLOUDY    28  25  88 N13G20    29.78S WCI  17
YELLOWSTONE LA   N/A     -1  -4  87 CALM      29.70F
IDAHO FALLS    CLOUDY    30  24  78 N10       29.66F WCI  21
SALMON         CLOUDY    30  25  80 CALM      29.77S
BOISE          MOCLDY    32  27  81 NW17      29.82S WCI  21
SPOKANE        PTCLDY    25  23  92 CALM      30.01S
$$

REGIONAL REPORTS...ALBERTA

CITY           SKY/WX    TMP DP  RH WIND       PRES   REMARKS
EDMONTON       CLOUDY    21  16  79 W2        30.08S
CALGARY        MOCLDY    21  19  93 NE6       30.02S FOG     WCI  14
LETHBRIDGE     CLOUDY    25 N/A N/A NE7       30.04R WCI  17
MEDICINE HAT   CLEAR     23  21  93 NE5       30.07S
WATERTON GATE    N/A     21  19  93 N6          N/A  WCI  14
CARDSTON         N/A     23  21  93 NE6         N/A  WCI  16
MILK RIVER       N/A     23  21  93 NE10        N/A  WCI  12
$$

REGIONAL REPORTS...SASKATCHEWAN

CITY           SKY/WX    TMP DP  RH WIND       PRES   REMARKS
SWIFT CURRENT  LGT SNOW  21  21 100 N12       30.02R WCI   9
REGINA         CLOUDY    23  18  80 N13       30.05R WCI  11
SASKATOON      MOCLDY    23  18  80 W6        30.08R WCI  16
CYPRESS HILLS    N/A     16  14  93 N7          N/A  WCI   6
VAL MARIE        N/A     28  27  93 W1          N/A
ASSINIBOIA       N/A     19  16  86 W3          N/A
$$




USA.gov is the U.S. government's official web portal to all federal, state and local government web resources and services.